Weather History for Boise, ID

Change the Weather History Date:

Wednesday, March 26, 2014

  Actual Average Record
Temperature  
Mean Temperature 47 °F 47 °F  
Max Temperature 56 °F 57 °F 82 °F (1877)
Min Temperature 37 °F 36 °F 18 °F (1913)
Degree Days  
Heating Degree Days 18 18  
Month to date heating degree days 491 548  
Since 1 July heating degree days 4831 4707  
Cooling Degree Days 0 0  
Month to date cooling degree days 0 0  
Year to date cooling degree days 0 0  
Moisture  
Dew Point 33 °F    
Average Humidity 62    
Maximum Humidity 92    
Minimum Humidity 32    
Precipitation  
Precipitation 0.11 in 0.05 in 0.70 in (1945)
Month to date precipitation 1.66 1.16  
Year to date precipitation 4.67 3.39  
Snow  
Snow 0.00 in 0.10 in 0.80 in (1901)
Month to date snowfall T 1.2  
Since 1 July snowfall 14.4 18.8  
Snow Depth 0.00 in    
Sea Level Pressure  
Sea Level Pressure 29.60 in    
Wind  
Wind Speed 6 mph (West)    
Max Wind Speed 22 mph    
Max Gust Speed 29 mph    
Visibility 10 miles    
Events Rain    
T = Trace of Precipitation, MM = Missing Value Source: NWS Daily Summary

Daily Weather History Graph

Daily Weather History Graph

Search for Another Location

Airport:

Trip Planner

Search our weather history database for the weather conditions in past years. The results will help you decide how hot, cold, wet, or windy it might be!

Date:

Astronomy

Mar. 26, 2014 Rise Set
Actual Time 7:37 AM MDT 8:04 PM MDT
Civil Twilight 7:08 AM MDT 8:33 PM MDT
Nautical Twilight 6:34 AM MDT 9:07 PM MDT
Astronomical Twilight 5:59 AM MDT 9:42 PM MDT
Moon 4:56 AM MDT (3/26) 3:41 PM MDT (3/26)
Length of Visible Light 13h 24m
Length of Day
12h 27m
Waning Crescent, 21% of the Moon is Illuminated
Mar 26
Waning Crescent
Mar 30
New
Apr 7
First Quarter
Apr 15
Full
Apr 22
Last Quarter

Hourly Weather History & Observations

Time (MDT) Temp. Windchill Dew Point Humidity Pressure Visibility Wind Dir Wind Speed Gust Speed Precip Events Conditions
12:53 AM 46.0 °F 43.9 °F 37.0 °F 71% 29.60 in 10.0 mi ESE 4.6 mph - N/A   Clear
1:53 AM 45.0 °F 39.7 °F 36.0 °F 71% 29.59 in 10.0 mi SE 10.4 mph - N/A   Mostly Cloudy
2:53 AM 44.1 °F 40.1 °F 36.0 °F 73% 29.59 in 10.0 mi SSE 6.9 mph - N/A   Scattered Clouds
3:53 AM 42.1 °F 38.4 °F 36.0 °F 79% 29.58 in 10.0 mi ESE 5.8 mph - N/A   Scattered Clouds
4:53 AM 41.0 °F - 35.1 °F 79% 29.58 in 10.0 mi Calm Calm - N/A   Mostly Cloudy
5:53 AM 39.9 °F - 35.1 °F 83% 29.60 in 10.0 mi Calm Calm - N/A   Overcast
6:53 AM 41.0 °F - 34.0 °F 76% 29.60 in 10.0 mi Calm Calm - N/A   Mostly Cloudy
7:53 AM 37.9 °F - 33.1 °F 83% 29.61 in 10.0 mi Calm Calm - N/A   Clear
8:53 AM 41.0 °F - 34.0 °F 76% 29.61 in 10.0 mi Calm Calm - N/A   Mostly Cloudy
9:53 AM 46.9 °F - 34.0 °F 61% 29.61 in 10.0 mi NNW 3.5 mph - N/A   Mostly Cloudy
10:53 AM 48.0 °F - 32.0 °F 54% 29.62 in 10.0 mi WNW 8.1 mph - N/A   Overcast
11:53 AM 48.9 °F - 33.1 °F 54% 29.63 in 10.0 mi NW 9.2 mph - N/A   Clear
12:53 PM 51.1 °F - 33.1 °F 50% 29.63 in 10.0 mi WNW 8.1 mph - N/A   Clear
1:53 PM 52.0 °F - 32.0 °F 47% 29.61 in 10.0 mi NW 5.8 mph - N/A   Clear
2:53 PM 53.1 °F - 28.9 °F 40% 29.59 in 10.0 mi North 10.4 mph - N/A   Scattered Clouds
3:53 PM 55.0 °F - 30.0 °F 38% 29.57 in 10.0 mi NNW 6.9 mph - N/A   Mostly Cloudy
4:53 PM 55.0 °F - 26.1 °F 33% 29.56 in 10.0 mi WSW 11.5 mph - N/A   Partly Cloudy
5:53 PM 53.1 °F - 32.0 °F 45% 29.57 in 10.0 mi SW 10.4 mph - N/A   Partly Cloudy
6:53 PM 52.0 °F - 30.0 °F 43% 29.56 in 10.0 mi WSW 5.8 mph - N/A   Partly Cloudy
7:53 PM 51.1 °F - 30.9 °F 46% 29.57 in 10.0 mi SW 3.5 mph - N/A   Clear
8:53 PM 48.9 °F - 32.0 °F 52% 29.57 in 10.0 mi SE 5.8 mph - N/A   Scattered Clouds
9:53 PM 46.0 °F 43.1 °F 30.9 °F 56% 29.58 in 10.0 mi ESE 5.8 mph - N/A   Overcast
10:53 PM 48.0 °F - 34.0 °F 58% 29.59 in 10.0 mi WSW 6.9 mph - 0.00 in Rain Light Rain
11:28 PM 37.4 °F 28.9 °F 37.4 °F 100% 29.65 in 5.0 mi WNW 13.8 mph - 0.04 in Rain Rain
11:53 PM 39.0 °F 33.4 °F 37.9 °F 96% 29.65 in 7.0 mi NNE 8.1 mph - 0.09 in Rain Light Rain